Time,TemperatureF,DewpointF,PressureIn,WindDirection,WindDirectionDegrees,WindSpeedMPH,WindSpeedGustMPH,Humidity,HourlyPrecipIn,Conditions,Clouds,dailyrainin,SolarRadiationWatts/m^2,SoftwareType,DateUTC
2013-04-23 00:02:00,51.0,32.0,-100.00,North,2,7.0,11.0,48,0.00,,,0.00,2.000000,,2013-04-23 07:02:00,
2013-04-23 00:11:00,51.0,32.0,-100.00,North,2,7.0,11.0,48,0.00,,,0.00,2.000000,,2013-04-23 07:11:00,
2013-04-23 00:42:00,50.0,29.0,-100.00,North,2,5.0,10.0,44,-99.99,,,0.00,2.000000,,2013-04-23 07:42:00,
2013-04-23 00:52:00,50.0,29.0,-100.00,North,2,5.0,10.0,44,-99.99,,,0.00,2.000000,,2013-04-23 07:52:00,
2013-04-23 01:01:00,50.0,29.0,-100.00,North,2,5.0,10.0,44,-99.99,,,0.00,2.000000,,2013-04-23 08:01:00,
2013-04-23 01:11:00,50.0,29.0,-100.00,North,2,5.0,10.0,44,-99.99,,,0.00,2.000000,,2013-04-23 08:11:00,
2013-04-23 01:42:00,52.0,22.0,-100.00,North,2,4.0,9.0,30,0.00,,,0.00,2.000000,,2013-04-23 08:42:00,
2013-04-23 01:52:00,52.0,22.0,-100.00,North,2,4.0,9.0,30,0.00,,,0.00,2.000000,,2013-04-23 08:52:00,
2013-04-23 02:43:00,51.0,16.0,-100.00,North,2,5.0,7.0,25,-99.99,,,0.00,2.000000,,2013-04-23 09:43:00,
2013-04-23 03:42:00,49.0,20.0,-100.00,North,2,7.0,11.0,31,-99.99,,,0.00,2.000000,,2013-04-23 10:42:00,
2013-04-23 03:52:00,49.0,20.0,-100.00,North,2,7.0,11.0,31,-99.99,,,0.00,2.000000,,2013-04-23 10:52:00,
2013-04-23 04:02:00,49.0,20.0,-100.00,North,2,7.0,11.0,31,-99.99,,,0.00,2.000000,,2013-04-23 11:02:00,
2013-04-23 04:12:00,49.0,20.0,-100.00,North,2,7.0,11.0,31,-99.99,,,0.00,2.000000,,2013-04-23 11:12:00,
2013-04-23 04:43:00,50.0,21.0,-100.00,North,2,15.0,20.0,32,0.00,,,0.00,2.000000,,2013-04-23 11:43:00,
2013-04-23 04:53:00,50.0,21.0,-100.00,North,2,15.0,20.0,32,0.00,,,0.00,2.000000,,2013-04-23 11:53:00,
2013-04-23 05:02:00,50.0,21.0,-100.00,North,2,15.0,20.0,32,0.00,,,0.00,2.000000,,2013-04-23 12:02:00,
2013-04-23 05:12:00,50.0,21.0,-100.00,North,2,15.0,20.0,32,0.00,,,0.00,2.000000,,2013-04-23 12:12:00,
2013-04-23 05:42:00,48.0,29.0,-100.00,North,1,19.0,26.0,47,0.00,,,0.00,2.000000,,2013-04-23 12:42:00,
2013-04-23 05:52:00,48.0,29.0,-100.00,North,1,19.0,26.0,47,0.00,,,0.00,2.000000,,2013-04-23 12:52:00,
2013-04-23 06:01:00,48.0,29.0,-100.00,North,1,19.0,26.0,47,0.00,,,0.00,2.000000,,2013-04-23 13:01:00,
2013-04-23 06:11:00,48.0,29.0,-100.00,North,1,19.0,26.0,47,0.00,,,0.00,2.000000,,2013-04-23 13:11:00,
2013-04-23 06:42:00,47.0,31.0,-100.00,North,1,18.0,26.0,54,0.00,,,0.00,4.000000,,2013-04-23 13:42:00,
2013-04-23 06:52:00,47.0,31.0,-100.00,North,1,18.0,26.0,54,0.00,,,0.00,4.000000,,2013-04-23 13:52:00,
2013-04-23 07:01:00,47.0,31.0,-100.00,North,1,18.0,26.0,54,0.00,,,0.00,4.000000,,2013-04-23 14:01:00,
2013-04-23 07:11:00,47.0,31.0,-100.00,North,1,18.0,26.0,54,0.00,,,0.00,4.000000,,2013-04-23 14:11:00,
2013-04-23 07:42:00,48.0,33.0,-100.00,North,2,17.0,25.0,55,0.00,,,0.00,80.000000,,2013-04-23 14:42:00,
2013-04-23 07:52:00,48.0,33.0,-100.00,North,2,17.0,25.0,55,0.00,,,0.00,80.000000,,2013-04-23 14:52:00,
2013-04-23 08:01:00,48.0,33.0,-100.00,North,2,17.0,25.0,55,0.00,,,0.00,80.000000,,2013-04-23 15:01:00,
2013-04-23 08:11:00,48.0,33.0,-100.00,North,2,17.0,25.0,55,0.00,,,0.00,80.000000,,2013-04-23 15:11:00,
2013-04-23 08:43:00,53.0,29.0,-100.00,North,1,13.0,29.0,40,0.00,,,0.00,327.000000,,2013-04-23 15:43:00,
2013-04-23 08:53:00,53.0,29.0,-100.00,North,1,13.0,29.0,40,0.00,,,0.00,327.000000,,2013-04-23 15:53:00,
2013-04-23 09:02:00,53.0,29.0,-100.00,North,1,13.0,29.0,40,0.00,,,0.00,327.000000,,2013-04-23 16:02:00,
2013-04-23 09:12:00,53.0,29.0,-100.00,North,1,13.0,29.0,40,0.00,,,0.00,327.000000,,2013-04-23 16:12:00,
2013-04-23 09:43:00,57.0,22.0,-100.00,North,1,12.0,18.0,26,0.00,,,0.00,568.000000,,2013-04-23 16:43:00,
2013-04-23 09:53:00,57.0,22.0,-100.00,North,1,12.0,18.0,26,0.00,,,0.00,568.000000,,2013-04-23 16:53:00,
2013-04-23 10:02:00,57.0,22.0,-100.00,North,1,12.0,18.0,26,0.00,,,0.00,568.000000,,2013-04-23 17:02:00,
2013-04-23 10:11:00,57.0,22.0,-100.00,North,1,12.0,18.0,26,0.00,,,0.00,568.000000,,2013-04-23 17:11:00,
2013-04-23 10:33:00,62.0,23.0,-100.00,North,1,8.0,20.0,22,0.00,,,0.00,792.000000,,2013-04-23 17:33:00,
2013-04-23 10:43:00,62.0,23.0,-100.00,North,1,8.0,20.0,22,0.00,,,0.00,792.000000,,2013-04-23 17:43:00,
2013-04-23 10:53:00,62.0,23.0,-100.00,North,1,8.0,20.0,22,0.00,,,0.00,792.000000,,2013-04-23 17:53:00,
2013-04-23 11:02:00,62.0,23.0,-100.00,North,1,8.0,20.0,22,0.00,,,0.00,792.000000,,2013-04-23 18:02:00,
2013-04-23 11:12:00,62.0,23.0,-100.00,North,1,8.0,20.0,22,0.00,,,0.00,792.000000,,2013-04-23 18:12:00,
2013-04-23 11:42:00,67.0,23.0,-100.00,North,0,5.0,15.0,19,0.00,,,0.00,975.000000,,2013-04-23 18:42:00,
2013-04-23 11:52:00,67.0,23.0,-100.00,North,0,5.0,15.0,19,0.00,,,0.00,975.000000,,2013-04-23 18:52:00,
2013-04-23 12:02:00,67.0,23.0,-100.00,North,0,5.0,15.0,19,0.00,,,0.00,975.000000,,2013-04-23 19:02:00,
2013-04-23 12:11:00,67.0,23.0,-100.00,North,0,5.0,15.0,19,0.00,,,0.00,975.000000,,2013-04-23 19:11:00,
2013-04-23 12:42:00,61.0,33.0,-100.00,North,0,7.0,11.0,35,0.00,,,0.00,1089.000000,,2013-04-23 19:42:00,
2013-04-23 12:52:00,61.0,33.0,-100.00,North,0,7.0,11.0,35,0.00,,,0.00,1089.000000,,2013-04-23 19:52:00,
2013-04-23 13:01:00,61.0,33.0,-100.00,North,0,7.0,11.0,35,0.00,,,0.00,1089.000000,,2013-04-23 20:01:00,
2013-04-23 13:11:00,61.0,33.0,-100.00,North,0,7.0,11.0,35,0.00,,,0.00,1089.000000,,2013-04-23 20:11:00,
2013-04-23 13:42:00,62.0,34.0,-100.00,North,0,8.0,14.0,35,0.00,,,0.00,1135.000000,,2013-04-23 20:42:00,
2013-04-23 13:52:00,62.0,34.0,-100.00,North,0,8.0,14.0,35,0.00,,,0.00,1135.000000,,2013-04-23 20:52:00,
2013-04-23 14:01:00,62.0,34.0,-100.00,North,0,8.0,14.0,35,0.00,,,0.00,1135.000000,,2013-04-23 21:01:00,
2013-04-23 14:11:00,62.0,34.0,-100.00,North,0,8.0,14.0,35,0.00,,,0.00,1135.000000,,2013-04-23 21:11:00,
2013-04-23 14:43:00,62.0,34.0,-100.00,North,0,8.0,14.0,35,0.00,,,0.00,1115.000000,,2013-04-23 21:43:00,
2013-04-23 14:52:00,62.0,34.0,-100.00,North,0,8.0,14.0,35,0.00,,,0.00,1115.000000,,2013-04-23 21:52:00,
2013-04-23 15:03:00,62.0,34.0,-100.00,North,0,8.0,14.0,35,0.00,,,0.00,1115.000000,,2013-04-23 22:03:00,
2013-04-23 15:12:00,62.0,34.0,-100.00,North,0,8.0,14.0,35,0.00,,,0.00,1115.000000,,2013-04-23 22:12:00,
2013-04-23 15:42:00,63.0,33.0,-100.00,North,0,8.0,14.0,32,0.00,,,0.00,1017.000000,,2013-04-23 22:42:00,
2013-04-23 15:52:00,63.0,33.0,-100.00,North,0,8.0,14.0,32,0.00,,,0.00,1017.000000,,2013-04-23 22:52:00,
2013-04-23 16:02:00,63.0,33.0,-100.00,North,0,8.0,14.0,32,0.00,,,0.00,1017.000000,,2013-04-23 23:02:00,
2013-04-23 16:12:00,63.0,33.0,-100.00,North,0,8.0,14.0,32,0.00,,,0.00,1017.000000,,2013-04-23 23:12:00,
2013-04-23 16:42:00,63.0,32.0,-100.00,North,0,8.0,14.0,31,0.00,,,0.00,848.000000,,2013-04-23 23:42:00,
2013-04-23 16:52:00,63.0,32.0,-100.00,North,0,8.0,14.0,31,0.00,,,0.00,848.000000,,2013-04-23 23:52:00,
2013-04-23 17:01:00,63.0,32.0,-100.00,North,0,8.0,14.0,31,0.00,,,0.00,848.000000,,2013-04-24 00:01:00,
2013-04-23 17:11:00,63.0,32.0,-100.00,North,0,8.0,14.0,31,0.00,,,0.00,848.000000,,2013-04-24 00:11:00,
2013-04-23 17:42:00,62.0,30.0,-100.00,North,0,6.0,12.0,30,0.00,,,0.00,605.000000,,2013-04-24 00:42:00,
2013-04-23 17:52:00,62.0,30.0,-100.00,North,0,6.0,12.0,30,0.00,,,0.00,605.000000,,2013-04-24 00:52:00,
2013-04-23 18:01:00,62.0,30.0,-100.00,North,0,6.0,12.0,30,0.00,,,0.00,605.000000,,2013-04-24 01:01:00,
2013-04-23 18:11:00,62.0,30.0,-100.00,North,0,6.0,12.0,30,0.00,,,0.00,605.000000,,2013-04-24 01:11:00,
2013-04-23 18:43:00,59.0,32.0,-100.00,North,1,7.0,11.0,36,0.00,,,0.00,373.000000,,2013-04-24 01:43:00,
2013-04-23 18:52:00,59.0,32.0,-100.00,North,1,7.0,11.0,36,0.00,,,0.00,373.000000,,2013-04-24 01:52:00,
2013-04-23 19:02:00,59.0,32.0,-100.00,North,1,7.0,11.0,36,0.00,,,0.00,373.000000,,2013-04-24 02:02:00,
2013-04-23 19:12:00,59.0,32.0,-100.00,North,1,7.0,11.0,36,0.00,,,0.00,373.000000,,2013-04-24 02:12:00,
2013-04-23 19:49:00,53.0,35.0,-100.00,North,1,3.0,10.0,50,0.00,,,0.00,112.000000,,2013-04-24 02:49:00,
2013-04-23 19:58:00,53.0,35.0,-100.00,North,1,3.0,10.0,50,0.00,,,0.00,112.000000,,2013-04-24 02:58:00,
2013-04-23 20:04:00,53.0,35.0,-100.00,North,1,3.0,10.0,50,0.00,,,0.00,112.000000,,2013-04-24 03:04:00,
2013-04-23 20:53:00,53.0,25.0,-100.00,North,1,5.0,8.0,33,0.00,,,0.00,5.000000,,2013-04-24 03:53:00,
2013-04-23 20:59:00,53.0,25.0,-100.00,North,1,5.0,8.0,33,0.00,,,0.00,5.000000,,2013-04-24 03:59:00,
2013-04-23 21:02:00,53.0,25.0,-100.00,North,1,5.0,8.0,33,0.00,,,0.00,5.000000,,2013-04-24 04:02:00,
2013-04-23 21:12:00,53.0,25.0,-100.00,North,1,5.0,8.0,33,0.00,,,0.00,5.000000,,2013-04-24 04:12:00,
2013-04-23 21:43:00,53.0,24.0,-100.00,North,1,8.0,15.0,32,0.00,,,0.00,2.000000,,2013-04-24 04:43:00,
2013-04-23 21:53:00,53.0,24.0,-100.00,North,1,8.0,15.0,32,0.00,,,0.00,2.000000,,2013-04-24 04:53:00,
2013-04-23 22:02:00,53.0,24.0,-100.00,North,1,8.0,15.0,32,0.00,,,0.00,2.000000,,2013-04-24 05:02:00,
2013-04-23 22:12:00,53.0,24.0,-100.00,North,1,8.0,15.0,32,0.00,,,0.00,2.000000,,2013-04-24 05:12:00,
2013-04-23 22:42:00,50.0,23.0,-100.00,North,1,3.0,12.0,34,0.00,,,0.00,2.000000,,2013-04-24 05:42:00,
2013-04-23 22:52:00,50.0,23.0,-100.00,North,1,3.0,12.0,34,0.00,,,0.00,2.000000,,2013-04-24 05:52:00,
2013-04-23 23:02:00,50.0,23.0,-100.00,North,1,3.0,12.0,34,0.00,,,0.00,2.000000,,2013-04-24 06:02:00,
2013-04-23 23:11:00,50.0,23.0,-100.00,North,1,3.0,12.0,34,0.00,,,0.00,2.000000,,2013-04-24 06:11:00,
2013-04-23 23:42:00,48.0,36.0,-100.00,North,2,4.0,6.0,62,0.00,,,0.00,2.000000,,2013-04-24 06:42:00,
2013-04-23 23:52:00,48.0,36.0,-100.00,North,2,4.0,6.0,62,0.00,,,0.00,2.000000,,2013-04-24 06:52:00,